Home   Weather   Bruges   Past weeks

Flag for Belgium Past Weather in Bruges, Belgium — Yesterday and Last 2 Weeks

43 °F


Feels Like: 37 °F
Forecast: 45 / 51 °F
Wind: 9 mph from East

Location: Oostende Airport

Current Time: Oct 24, 2016 at 12:12:18 AM

Latest Report: Oct 23, 2016 at 11:20 PM

Visibility: 2 mi

Pressure: 29.86 "Hg

Humidity: 93%

Dew Point: 41 °F

Location of BrugesLocation

Past Weather in Bruges — Graph


Bruges Temperature Yesterday

Maximum temperature yesterday: 50 °F (at 12:50 PM)
Minimum temperature yesterday: 36 °F (at 6:50 AM)
Average temperature yesterday: 43 °F

High & Low Weather Summary for the Past Weeks

High64 °F (Oct 16, 1:20 PM)100% (Oct 21, 5:50 AM)30.33 "Hg (Oct 21, 5:50 AM)
Low36 °F (Oct 23, 6:50 AM)51% (Oct 9, 1:50 PM)29.65 "Hg (Oct 14, 10:20 PM)
Average50 °F81%30.03 "Hg
* Reported Oct 8 10:20 PM — Oct 23 10:50 PM, Bruges, Weather by CustomWeather, © 2016

Note: Actual official high and low records may vary slightly from our data, if they occured in-between our weather recording intervals... More about our weather records


Bruges Weather History for the Previous 24 Hours

Scroll right to see more
Time TempWeatherWind HumidityBarometerVisibility
10:50 PM
Sun, Oct 23
43 °FFog.10 mph93%29.86 "Hg2 mi
10:20 PM45 °FFog.9 mph87%29.86 "Hg2 mi
9:50 PM45 °FFog.8 mph87%29.86 "Hg2 mi
9:20 PM45 °FFog.10 mph87%29.86 "Hg2 mi
8:50 PM45 °FFog.7 mph87%29.86 "Hg2 mi
8:20 PM45 °FFog.7 mph87%29.86 "Hg3 mi
7:50 PM45 °FClear.5 mph87%29.86 "Hg4 mi
7:20 PM46 °FClear.7 mph82%29.86 "Hg4 mi
6:50 PM46 °FFog.8 mph82%29.86 "Hg3 mi
6:20 PM46 °FClear.7 mph82%29.86 "Hg4 mi
5:50 PM46 °FClear.5 mph87%29.86 "Hg4 mi
5:20 PM48 °FClear.8 mph76%29.86 "Hg6 mi
4:50 PM48 °FClear.12 mph76%29.86 "Hg6 mi
4:20 PM50 °FPassing clouds.12 mph71%29.86 "HgN/A
3:50 PM50 °FPassing clouds.14 mph67%29.86 "HgN/A
3:20 PM50 °FPassing clouds.15 mph67%29.86 "Hg6 mi
2:50 PM50 °FPassing clouds.12 mph71%29.86 "Hg6 mi
2:20 PM50 °FPassing clouds.13 mph76%29.89 "Hg4 mi
1:50 PM50 °FPassing clouds.9 mph76%29.89 "Hg4 mi
1:20 PM48 °FPassing clouds.10 mph76%29.89 "Hg4 mi
12:50 PM50 °FPassing clouds.8 mph76%29.92 "Hg4 mi
12:20 PM48 °FPassing clouds.9 mph82%29.92 "Hg4 mi
11:50 AM46 °FFog.12 mph82%29.92 "Hg3 mi
11:20 AM45 °FFog.9 mph87%29.92 "Hg3 mi
10:50 AM43 °FFog.8 mph87%29.92 "Hg3 mi
10:20 AM43 °FFog.10 mph87%29.92 "Hg3 mi
9:50 AM41 °FFog.7 mph87%29.92 "Hg3 mi
9:20 AM37 °FFog.6 mph87%29.92 "Hg2 mi
8:50 AM36 °FFog.5 mph93%29.92 "Hg2 mi
8:20 AM36 °FFog.7 mph93%29.92 "Hg2 mi
7:50 AM37 °FFog.6 mph87%29.92 "Hg2 mi
7:20 AM36 °FFog.5 mph93%29.92 "Hg2 mi
6:50 AM36 °FFog.6 mph93%29.92 "Hg2 mi
6:20 AM37 °FFog.7 mph87%29.92 "Hg2 mi
5:50 AM37 °FFog.6 mph87%29.92 "Hg2 mi
5:20 AM37 °FFog.7 mph93%29.92 "Hg2 mi
4:50 AM37 °FFog.8 mph93%29.92 "Hg2 mi
4:20 AM37 °FFog.7 mph93%29.92 "Hg2 mi
3:50 AM37 °FFog.8 mph93%29.95 "Hg2 mi
3:20 AM39 °FFog.8 mph87%29.95 "Hg2 mi
2:50 AM39 °FFog.7 mph87%29.95 "Hg2 mi
2:20 AM37 °FFog.7 mph93%29.95 "Hg2 mi
1:50 AM37 °FFog.6 mph93%29.95 "Hg3 mi
1:20 AM39 °FFog.5 mph87%29.95 "Hg3 mi
12:50 AM39 °FFog.6 mph87%29.95 "Hg3 mi
12:20 AM41 °FClear.7 mph87%29.95 "Hg4 mi
Weather by CustomWeather, © 2016

See weather overviewHow to use our weather pages